Find Starlink 11325

NORAD ID: 61538 Int'l Des: 2024-184 Owner: SPXS Country: US Constellation: starlink operational
LEOCIRCULAR

リアルタイム位置

3D地球を読み込み中...

Starlink 11325について

説明を読み込み中...

次回通過

Passes for default location (London). Set your location on the main map for personalized predictions.

高度履歴

Loading altitude history...

軌道要素

1 61538U 24184G 26126.51973836 -.00002578 00000-0 -16441-4 0 9995
2 61538 53.1584 310.9254 0001507 118.9690 241.1479 15.69686884 89503
Epoch: May 6, 2026 • Age: 9 hours

現在のステータス

高度 377.9 km
速度 7.68 km/s
衛星直下点 -50.51°S, 11.22°E
打ち上げ日 Oct 15, 2024
運用期間 1.5 years
タイプ internet

技術仕様

分類 Payload
質量 960.00 kg
乾燥質量 910.00 kg
総質量 960.00 kg
長さ 0.30 m
直径 4.10 m
スパン 29.00 m
形状 Box + pan
製造者 SPXS
バスタイプ Starlink V2MD
フェーズステータス In Orbit
所有者/国 SPXS/US

Most Searched